星链-3834 (STARLINK-3834 )

导读 | 豆包AI

STARLINK-3834是美国SpaceX公司星链(Starlink)星座中的卫星,于2022年4月29日发射。作为星链低轨互联网星座的组成部分,它属于Starlink V1.5批次,配备激光星间链路,可实现卫星间直接通信,降低对地面基站的依赖。该卫星运行在近地轨道,参与构建全球覆盖的高速卫星互联网,为偏远地区、海洋等场景提供宽带服务,是星链星座规模扩张中的一员,支撑星座全球网络覆盖能力提升。

基本信息
目录编号:
52368
目录名称:
STARLINK-3834
国际标识:
2022-045AP
轨道中心:
EARTH
卫星名称:
星链-3834
卫星全名:
星链-3834 (STARLINK-3834 )
卫星状态:
在轨 (已飞行1462 天)
发射日期:
2022-04-29 UTC
国别 :
美国 (US)
星等 :
--
轨道信息
数据来源 国际轨道数据
星历时间: 2026-04-30T21:31:00+0800
8小时前
查看轨道信息
半长轴: 6917.898km
偏心率: 0.0001286
轨道倾角: 53.218°
近地点辐角 88.038°
升交点赤经 316.252°
平近点角 272.076°
近地点: 538.871km
远地点: 540.651km
周期: 95.438分钟
每日圈数: 15.088343
详细信息
固有亮度:
5
最大亮度:
2.5
卫星平台:
Starlink v1.5
覆盖范围:
全球
运营商:
太空探索技术公司
运营商所在国:
美国
制造商(研发单位):
太空探索技术公司
制造商所在国:
美国
使用方式:
暂无
卫星简介
星链(Starlink)计划是由太空探索技术公司(SpaceX)提出的一个巨型低轨卫星互联网星座项目,计划在2019年至2024年间在太空搭建由约1.2万颗卫星组成的“星链”网络,其中1584颗将部署在地球上空550千米处的近地轨道,并从2020年开始工作。该卫星仍在工作。
2D轨道图
3D轨道图
轨道高度分析图
轨道倾角分析图
轨道综合分析图
查看轨道综合分析图